STARLINK-2112 (47391 NORAD) Tracking and Keplerian Element Data
This shows tracking and keplerian element data for the satellite.
Feedback or suggestion? Click here.
Element | Value |
Catalog | 47391 |
Name | STARLINK-2112 |
Epoch Orbit | 177 |
Epoch Day | 101.91668981 |
Epoch Year | 2021 |
RAAN | 171.9579 |
Inclination | 53.0536 |
Eccentricity | 0.0004048 |
Argument of Perigee | 5.9001 |
Mean Anonmoly | 145.536 |
Mean Motion | 15.62852871 |
Decay Rate | -0.00087084 |
L1 | 1 47391U 21005AU 21101.91668981 -.00087084 00000-0 -95125-3 0 9999 |
L2 | 2 47391 53.0536 171.9579 0004048 5.9001 145.5360 15.62852871 1772 |
Live tracking and technical data element details for STARLINK-2112 (NORAD 47391). STARLINK-2112 can be tracked NOW for your location showing map with azimuth and elevation plus other details from your city location.
Track the satellite on the map from your city or location and see movement details for azimuth, elevation, latitude, longitude, range, height, and movement on the map or in text.
IsCatalogInMostPopularTable: catalog: 47391, numindb: 14
Update: records affected: 1
GetName: 47391 STARLINK-2112
Hit Count: updated at: Tue, 13 Apr 2021 04:04:29 GMT